Simultaneous Nadir Overpasses (SNOs) Predictions

Prediction of SNOs between NOAA-20 and METOP-B Satellite Orbit:

Table of predicted SNOs for the next 14.0 days since TLE Epoch: 10/22/2021
Index Date (NOAA-20) Time (NOAA-20) Lat,Lon (NOAA-20) SZA (NOAA-20 ) Date (METOP-B) Time (METOP-B) Lat,Lon (METOP-B) SZA (METOP-B ) Distance(km) Time Diff (sec)
1 11/04/2021 07:43:10 73.32, 54.66 88.77 11/04/2021 07:44:18 73.27, 57.08 88.66 77.37 68
2 11/04/2021 08:33:53 -73.26,-137.88 91.29 11/04/2021 08:35:01 -73.23,-135.67 91.36 70.92 68
3 11/04/2021 09:24:34 73.03, 29.94 88.49 11/04/2021 09:25:45 72.99, 31.14 88.42 39.42 71
4 11/04/2021 10:15:17 -72.96,-162.61 91.58 11/04/2021 10:16:29 -72.91,-161.70 91.65 30.27 72
5 11/04/2021 11:05:58 72.73, 5.19 88.20 11/04/2021 11:07:12 72.72, 5.23 88.18 1.95 74
6 11/04/2021 11:56:42 -72.72, 172.53 91.81 11/04/2021 11:57:54 -72.74, 172.60 91.80 3.19 72
7 11/04/2021 12:47:27 72.69, -20.10 88.17 11/04/2021 12:48:34 72.70, -20.15 88.18 2.22 67
8 11/04/2021 13:38:12 -72.73, 147.14 91.78 11/04/2021 13:39:16 -72.72, 147.21 91.80 2.66 64
9 11/04/2021 14:28:57 72.69, -45.49 88.20 11/04/2021 14:29:56 72.68, -45.54 88.18 2.65 59
10 11/04/2021 15:19:41 -72.68, 121.85 91.80 11/04/2021 15:20:38 -72.70, 121.83 91.79 1.79 57
11 11/04/2021 16:10:27 72.70, -70.88 88.23 11/04/2021 16:11:17 72.71, -70.82 88.23 2.03 50
12 11/04/2021 17:01:11 -72.69, 96.46 91.78 11/04/2021 17:02:00 -72.68, 96.45 91.79 1.56 49
13 11/04/2021 17:51:56 72.66, -96.16 88.21 11/04/2021 17:52:39 72.69, -96.20 88.23 3.30 43
14 11/04/2021 18:42:41 -72.70, 71.07 91.75 11/04/2021 18:43:21 -72.71, 71.17 91.74 3.31 40
15 11/04/2021 19:33:26 72.67,-121.55 88.24 11/04/2021 19:34:01 72.67,-121.58 88.23 1.07 35
16 11/04/2021 20:24:10 -72.65, 45.79 91.77 11/04/2021 20:24:43 -72.69, 45.79 91.74 3.59 33
17 11/04/2021 21:14:56 72.67,-146.94 88.26 11/04/2021 21:15:23 72.64,-146.96 88.23 3.32 27
18 11/04/2021 22:05:40 -72.66, 20.40 91.74 11/04/2021 22:06:05 -72.67, 20.40 91.74 0.49 25
19 11/04/2021 22:56:26 72.68,-172.33 88.29 11/04/2021 22:56:44 72.67,-172.24 88.28 2.90 18
20 11/04/2021 23:47:10 -72.67, -4.99 91.71 11/04/2021 23:47:27 -72.65, -4.98 91.74 2.65 17
21 11/05/2021 00:37:55 72.64, 162.39 88.27 11/05/2021 00:38:06 72.65, 162.38 88.29 1.90 11
22 11/05/2021 01:28:39 -72.63, -30.27 91.74 11/05/2021 01:28:49 -72.62, -30.36 91.74 2.88 10
23 11/05/2021 02:19:25 72.64, 137.00 88.30 11/05/2021 02:19:28 72.63, 136.99 88.29 1.29 3



Historial Predications of SNOs between NOAA-20 and METOP-B
